Regional Weather Roundup
Issued by NWS Goodland, KS

Home | Current Version | Previous Version | Graphics & Text | Print | Product List | Glossary On
Versions: 1 2 3 4 5 6 7 8 9 10 11 12 13 14 15 16 17 18 19 20 21 22 23 24 25 26 27 28 29 30 31 32 33 34 35 36 37 38 39 40 41 42 43 44 45 46 47 48 49 50
919
ASUS43 KGLD 240908
RWRGLD

GOODLAND FORECAST AREA HOURLY WEATHER ROUNDUP
NATIONAL WEATHER SERVICE GOODLAND KS
300 AM MDT SUN JUL 24 2016

...OFFICIAL OBSERVATIONS...

CITY           SKY/WX    TMP DP  RH WIND       PRES   REMARKS
GOODLAND KS    CLOUDY    73  58  59 W6        30.05R
HILL CITY KS   PTCLDY    79  72  79 NW8       29.91R
IMPERIAL NEB   CLOUDY    75  56  51 E12       30.00S
MCCOOK NEB     CLOUDY    73  62  68 NE7       29.97R
AKRON CO       CLOUDY    69  52  54 SE9       30.09R
BURLINGTON CO  CLOUDY    73  53  49 S3        30.08F
LIMON CO       CLOUDY    59  55  87 CALM      30.17R
$$

...UNOFFICIAL OBSERVATIONS...

CITY           SKY/WX    TMP DP  RH WIND       PRES   REMARKS
COLBY KS       PTCLDY    75  70  83 N9        30.03R
LENORA KS        N/A     77  32  19 MISG        N/A
NORTON KS      CLEAR     73  63  68 N12       29.92S
YUMA CO          N/A     69  56  64 CALM        N/A
$$




USA.gov is the U.S. government's official web portal to all federal, state and local government web resources and services.